This is the latest recevied weather packets stored in our database for station/object VE3TEJ. If no packets are shown the sender has not sent any weather packets the latest 10 day(s).
| Time | Temp. | Humidity | Pressure | Rain* | Wind** | Luminosity | Snow |
|---|---|---|---|---|---|---|---|
| 1777748536 | 7.22° C | 46% | 1014.7 hPa | 0 mm | - | - | - |
| 1777748237 | 7.22° C | 47% | 1014.8 hPa | 0 mm | - | - | - |
| 1777747937 | 6.67° C | 45% | 1014.8 hPa | 0 mm | - | - | - |
| 1777747637 | 6.67° C | 47% | 1014.8 hPa | 0 mm | - | - | - |
| 1777747337 | 6.67° C | 47% | 1015 hPa | 0 mm | - | - | - |
| 1777747037 | 6.67° C | 48% | 1014.8 hPa | 0 mm | - | - | - |
| 1777746737 | 6.67° C | 49% | 1014.9 hPa | 0 mm | - | - | - |
| 1777746437 | 6.67° C | 46% | 1014.9 hPa | 0 mm | - | - | - |
| 1777746137 | 6.67° C | 47% | 1015 hPa | 0 mm | - | - | - |
| 1777745837 | 7.22° C | 46% | 1014.8 hPa | 0 mm | - | - | - |
| 1777745537 | 7.22° C | 46% | 1014.8 hPa | 0 mm | - | - | - |
| 1777745237 | 7.22° C | 47% | 1014.8 hPa | 0 mm | - | - | - |
| 1777744937 | 7.22° C | 44% | 1014.9 hPa | 0 mm | - | - | - |
| 1777744637 | 6.67° C | 47% | 1014.9 hPa | 0 mm | - | - | - |
| 1777744337 | 6.67° C | 48% | 1014.8 hPa | 0 mm | - | - | - |
| 1777744037 | 6.67° C | 49% | 1014.6 hPa | 0 mm | - | - | - |
| 1777743737 | 6.11° C | 48% | 1014.8 hPa | 0 mm | - | - | - |
| 1777743437 | 5.56° C | 51% | 1014.8 hPa | 0 mm | - | - | - |
| 1777743136 | 6.11° C | 51% | 1014.9 hPa | 0 mm | - | - | - |
| 1777742838 | 6.11° C | 50% | 1014.9 hPa | 0 mm | - | - | - |
| 1777742537 | 6.11° C | 50% | 1014.8 hPa | 0 mm | - | - | - |
| 1777742236 | 6.11° C | 48% | 1014.8 hPa | 0 mm | - | - | - |
| 1777741938 | 5.56° C | 52% | 1014.9 hPa | 0 mm | - | - | - |
| 1777741637 | 5.56° C | 53% | 1014.9 hPa | 0 mm | - | - | - |
| 1777741337 | 6.11° C | 52% | 1014.8 hPa | 0 mm | - | - | - |
* Rain latest hour (hover to see other rain measurements)
** Current wind speed in m/s (hover to see current wind gust speed)